Hourly Data Report for October 18, 2017

All times are specified in Local Standard Time (LST). Add 1 hour to adjust for Daylight Saving Time where and when it is observed.

CLYDE RIVER A
NUNAVUT

70°29'09.000" N
68°31'01.000" W
26.50 m
2400804
71090
YCY

Download Data

Hourly Data (October 2017)
Hourly Data Report for October 18, 2017
Temp Definition
°C
Dew Point Temp Definition
°C
Rel Hum Definition
%
Wind Dir Definition
10's deg

Wind Spd Definition
km/h
Visibility Definition
km
Stn Press Definition
kPa
Hmdx Definition


Wind Chill Definition


Weather Definition


TIME
00:00 Legend Double Dagger -9.4 -11.0 88 31 21 16.1 100.04   -17 LegendNANA
01:00 Legend Double Dagger -7.3 -9.3 86 29 21 16.1 100.06   -15 LegendNANA
02:00 Legend Double Dagger -8.9 -10.8 86 30 22 16.1 100.08   -17 LegendNANA
03:00 Legend Double Dagger -8.2 -9.7 89 30 18 16.1 100.10   -15 Snow
04:00 Legend Double Dagger -7.5 -10.1 82 33 17 16.1 100.12   -14 LegendNANA
05:00 Legend Double Dagger -6.9 -9.0 85 34 17 16.1 100.18   -13 LegendNANA
06:00 Legend Double Dagger -6.1 -8.9 81 32 17 16.1 100.22   -12 LegendNANA
07:00 Legend Double Dagger -7.1 -9.7 82 32 15 16.1 100.23   -13 LegendNANA
08:00 Legend Double Dagger -6.9 -9.3 83 28 15 16.1 100.24   -13 LegendNANA
09:00 Legend Double Dagger -6.4 -9.0 82 30 15 16.1 100.25   -12 LegendNANA
10:00 Legend Double Dagger -6.5 -8.8 84 27 13 16.1 100.24   -12 LegendNANA
11:00 Legend Double Dagger -6.0 -8.6 82 28 17 16.1 100.25   -12 LegendNANA
12:00 Legend Double Dagger -5.9 -8.2 84 28 15 16.1 100.24   -12 Snow
13:00 Legend Double Dagger -6.1 -8.5 83 28 17 16.1 100.27   -12 LegendNANA
14:00 Legend Double Dagger -5.9 -8.5 82 28 21 16.1 100.29   -13 LegendNANA
15:00 Legend Double Dagger -6.6 -8.7 85 26 13 16.1 100.29   -12 LegendNANA
16:00 Legend Double Dagger -6.8 -9.1 84 25 13 16.1 100.32   -12 LegendNANA
17:00 Legend Double Dagger -6.4 -8.8 83 30 17 16.1 100.32   -13 LegendNANA
18:00 Legend Double Dagger -6.5 -8.8 84 23 8 16.1 100.34   -10 LegendNANA
19:00 Legend Double Dagger -6.0 -8.6 82 30 15 16.1 100.35   -12 LegendNANA
20:00 Legend Double Dagger -6.7 -9.0 84 29 15 16.1 100.33   -13 LegendNANA
21:00 Legend Double Dagger -6.8 -9.3 83 30 21 16.1 100.31   -14 LegendNANA
22:00 Legend Double Dagger -6.4 -8.5 85 29 17 16.1 100.31   -13 Snow
23:00 Legend Double Dagger -6.1 -8.4 84 29 18 16.1 100.30   -13 LegendNANA

Notes on Data Quality.

Legend

  • E = Estimated
  • M = Missing
  • NA = Not Available
  • ‡ = Partner data that is not subject to review by the National Climate Archives
Date modified: